Location: Coffee Creek Observatory
(38.8077°N, 94.7179°W)
Time: 06:58:31
(UTC-05:00)

Daily predictions for brighter satellites

Satellite Brightness Start Highest point End
(mag) Time Altitude Azimuth Time Altitude Azimuth Time Altitude Azimuth
Timation 1 Rocket 4.4 20:00:14 10° S 20:06:08 61° ESE 20:12:04 10° NNE
Cosmos 2082 Rocket 2.9 20:02:58 10° N 20:08:11 36° ENE 20:13:21 10° SE
METEOR-M 4.5 20:03:00 10° S 20:08:19 73° WSW 20:13:40 10° NNW
ISS -3.3 20:05:27 10° SSW 20:08:30 39° SE 20:11:35 10° ENE
FengYun 1-2 T 4.4 20:03:37 10° SSE 20:09:03 57° ENE 20:14:34 10° N
Cosmos 1605 Rocket 4.1 20:03:46 10° S 20:09:56 64° E 20:16:13 10° NNE
Meteor 1-24 Rocket 4.1 20:12:27 10° NNW 20:17:58 70° W 20:23:42 10° S
CZ-3B DEB 4.0 20:08:41 10° WSW 20:20:15 49° NW 20:25:41 10° NE
FREGAT/IRIS 3.4 20:17:15 10° S 20:20:15 57° W 20:23:16 10° NNW
COSMOS 2487 3.2 20:20:13 10° N 20:23:31 34° ENE 20:26:45 10° SE
Cosmos 1271 Rocket 3.8 20:20:43 10° SSE 20:24:04 26° E 20:27:27 10° NE
Cosmos 1758 3.3 20:21:24 10° S 20:25:19 63° E 20:29:17 10° NNE
Cosmos 2123 Rocket 4.1 20:19:56 10° N 20:26:16 85° W 20:32:31 10° S
H-2A R/B 4.0 20:21:44 10° SW 20:26:30 42° SSE 20:47:51 13° E
Cosmos 1818 3.5 20:23:11 10° NNW 20:28:40 81° ENE 20:34:05 10° SSE
Cosmos 372 Rocket 4.0 20:24:09 10° S 20:29:08 57° ESE 20:34:11 10° NNE
Cosmos 1269 Rocket 4.2 20:24:01 10° N 20:29:12 54° ENE 20:34:21 10° SE
Cosmos 1953 2.3 20:27:37 10° S 20:31:39 69° E 20:35:42 10° NNE
Cosmos 1674 3.3 20:29:16 10° N 20:32:48 35° ENE 20:36:15 10° SE
Lacrosse 5 3.8 20:29:06 10° W 20:33:30 29° NW 20:37:54 10° NNE
Cosmos 468 4.5 20:28:29 10° NNW 20:33:45 87° ENE 20:39:00 10° SSE
Cosmos 158 Rocket 4.2 20:28:52 10° N 20:33:52 49° ENE 20:38:58 10° SE
Resurs 1-3 3.6 20:32:27 10° SSE 20:36:47 64° ENE 20:41:08 10° N
Cosmos 1408 Rocket 3.9 20:33:29 10° N 20:37:49 46° E 20:42:06 10° SSE
USA 215 4.1 20:32:39 10° ENE 20:38:05 28° SE 20:43:29 10° S
Meteor 1-4 Rocket 2.7 20:38:55 10° SSW 20:42:22 73° W 20:45:51 10° N
Cosmos 1939 Rocket 4.3 20:42:57 20° E 20:44:01 22° ENE 20:47:13 10° NNE
Helios 1B rocket 2.8 20:41:07 10° NNE 20:45:02 41° E 20:48:55 10° S
Lacrosse 5 rocket 1.8 20:49:06 10° NNW 20:52:49 39° NE 20:54:09 28° E
Spot 2 Rocket 3.6 20:48:01 10° S 20:53:07 80° WSW 20:58:16 10° NNW
Cosmos 2061 Rocket 4.2 20:48:53 10° SSE 20:55:02 52° E 21:01:15 10° NNE
Cosmos 1076 Rocket 3.7 20:53:28 10° NNW 20:57:42 70° W 21:01:54 10° S
CZ-2D R/B 3.3 20:54:48 10° S 20:58:39 79° WSW 21:02:34 10° NNW
Cosmos 1459 Rocket 4.0 20:53:32 10° S 20:59:41 62° E 21:05:45 10° NNE
Timation 2 Rocket 3.8 20:55:18 10° NNW 21:01:36 79° ENE 21:06:20 17° SSE
Helios 1A 2.8 21:02:56 19° SSE 21:05:48 75° ENE 21:09:59 10° N
Abrixas 4.0 21:03:49 10° W 21:06:14 25° SW 21:06:58 22° SSW
ALOS 4.1 21:03:47 10° SSW 21:07:54 31° W 21:12:03 10° NW
Cosmos 2173 Rocket 3.9 21:01:51 10° S 21:07:57 71° E 21:14:12 10° NNE
Cosmos 1184 Rocket 3.9 21:06:03 10° N 21:08:25 30° NE 21:08:25 30° NE
Envisat 3.1 21:08:43 27° SE 21:11:19 57° ENE 21:16:18 10° N
Cosmos 1833 Rocket 2.8 21:06:22 10° NNW 21:11:59 76° WSW 21:16:33 16° SSE
Meteor 2-17 Rocket 4.4 21:10:07 10° S 21:16:07 58° E 21:22:08 10° NNE
Cosmos 1733 3.5 21:14:52 10° SSW 21:18:41 66° W 21:22:34 10° N
Cosmos 1470 3.3 21:16:45 10° SSW 21:20:41 59° W 21:24:36 10° N
SeaSat 1 3.8 21:16:36 10° S 21:21:07 37° WSW 21:25:41 10° NW
GPS 2-05 Rocket1 3.2 21:17:41 10° WSW 21:21:02 50° S 21:21:02 50° S
Spot 1 4.5 21:18:18 16° S 21:22:00 73° WSW 21:26:57 10° NNW
ATLAS 5 CENTAUR R/B 2.8 21:18:46 10° SW 21:23:17 48° NW 21:28:13 10° NNE
ERS-1 Rocket 3.4 21:23:15 38° E 21:23:36 39° ENE 21:28:16 10° N
Cosmos 1766 Rocket 4.5 21:20:25 10° NNW 21:24:45 49° W 21:29:03 10° SSW
Cosmos-2242 3.7 21:20:42 10° SSW 21:24:50 52° W 21:29:01 10° N
Geosat 4.3 21:20:10 10° NNE 21:25:10 68° WNW 21:30:08 10° SW
GP-B 3.9 21:24:17 10° SSW 21:28:35 50° W 21:32:54 10° NNW
USA 186 3.8 21:29:38 19° WNW 21:29:38 19° WNW 21:30:51 10° NW
H-2A R/B 4.1 21:31:01 13° NE 21:31:01 13° NE 21:32:26 10° NNE
OAO 2 Rocket 4.0 21:25:37 10° SW 21:30:17 38° SSE 21:30:17 38° SSE
Cosmos 1356 Rocket 3.7 21:27:01 10° N 21:30:27 50° NE 21:30:27 50° NE
CZ-4B DEB 3.5 21:33:45 50° WNW 21:33:45 50° WNW 21:36:25 10° NNW
CZ-3 Stage 3 3.6 21:00:16 10° W 21:34:35 57° SSW 21:37:49 36° SE
Cosmos 1340 Rocket 3.5 21:32:52 10° NNW 21:36:47 53° W 21:38:09 34° SSW
Resurs 01 Rocket 4.0 21:34:31 10° SW 21:37:57 22° W 21:41:24 10° NW
BREEZE-M DEB (TANK) 4.4 21:37:09 10° NNW 21:38:18 20° N 21:38:18 20° N
Cosmos 2016 Rocket 3.9 21:33:55 10° S 21:40:09 89° W 21:46:20 10° N
ISS -1.7 21:42:20 10° W 21:45:04 24° NNW 21:45:27 23° NNW
Cosmos 1725 Rocket 3.8 21:47:24 39° S 21:49:50 75° E 21:56:02 10° N
Cosmos 2082 Rocket 3.8 21:47:14 10° NW 21:52:07 30° WSW 21:56:36 12° SSW
ARGOS 4.1 21:55:16 33° NE 21:55:16 33° NE 21:58:54 10° N
Cosmos 1743 Rocket 4.4 21:51:37 10° NNW 21:55:54 48° W 21:56:52 40° SW
YAOGAN 6 4.4 21:58:47 28° N 21:58:47 28° N 22:00:38 10° N
Cosmos 1500 Rocket 3.9 21:52:37 10° NNW 21:56:35 63° WNW 21:56:35 63° WNW
SL-14 R/B 4.3 21:55:33 10° NNW 21:58:18 42° NW 21:58:18 42° NW
Cosmos 2058 4.4 21:59:23 10° N 22:01:37 31° N 22:01:37 31° N
Meteor 1-11 4.1 21:58:04 10° N 22:03:40 81° W 22:04:09 73° SSW
Cosmos 2251 Rocket 3.8 22:03:41 10° NNW 22:08:57 64° WSW 22:09:13 63° WSW
Tsikada Rocket 3.9 22:07:15 10° N 22:13:29 84° W 22:14:02 75° SSW
BREEZE-M DEB (TANK) 4.2 22:11:36 10° W 22:15:56 65° NNW 22:33:09 10° ENE
Cosmos 2151 4.5 22:15:55 10° NNW 22:18:38 34° NW 22:18:38 34° NW
SPOT 5 3.8 22:22:08 47° N 22:22:08 47° N 22:25:54 10° N
USA 215 3.3 22:14:54 10° NE 22:21:25 75° NW 22:27:55 10° SW
Meteor 2-1 Rocket 4.5 22:25:50 66° NW 22:25:50 66° NW 22:31:09 10° N
Terra 4.3 22:31:05 12° NNE 22:31:05 12° NNE 22:31:34 10° NNE
Lacrosse 5 rocket 4.0 22:28:59 10° WNW 22:29:53 14° W 22:29:53 14° W
CZ-3B DEB 4.5 22:30:16 10° NW 22:32:42 12° NNW 22:34:35 10° N
Cosmos 2369 Rocket 3.5 22:43:23 34° N 22:43:23 34° N 22:46:41 10° NNE
USA 267 4.0 22:53:31 43° NNE 22:53:31 43° NNE 22:58:54 10° NW
H-2A R/B 4.0 23:11:38 25° NNW 23:11:38 25° NNW 23:13:49 10° NNW
